Starlink 3696

operational
NORAD ID: 51965 Int'l Des: 2022-025 Owner: SPXS Country: US Constellation: starlink
LEOCIRCULARSTARLINK_TYPE

关于 Starlink 3696

正在加载描述...

实时位置

正在加载3D地球...

即将过境

高度历史

Altitude vs Time

uPlot chart will show altitude changes over time

两行轨道根数

1 51965U 22025K 25258.97103357 .00000316 00000-0 40116-4 0 9990
2 51965 53.0547 100.1857 0001400 91.7122 268.4027 15.06400020194518
Epoch: Sep 15, 2025 • Age: 15 hours

当前状态

高度 553.1 km
速度 7.59 km/s
星下点 -20.04°S, 79.24°E
发射日期 Mar 9, 2022
运行时间 3.5 years
类型 internet

技术详情

分类 Payload
质量 297.00 kg
干质量 275.00 kg
总质量 297.00 kg
长度 0.20 m
直径 2.80 m
跨度 9.00 m
形状 Box + pan
制造商 SPXS
平台类型 Starlink
阶段状态 In Orbit
所有者/国家 SPXS/US

大型星座

Loading constellations...